Location: Huntsville
(41.2590°N, 111.7678°W)
Time: 19:32:27
(UTC+00:00)

Explorer 7 - Pass Details

Date: 20 June 2021
Orbit: 484 x 676 km, 50.3° (Epoch: 30 July)

Event Time Altitude Azimuth Distance (km) Brightness Sun altitude
Rises 04:33:34 0° 242° (WSW) 3,014 10.8 -13.6°
Reaches altitude 10° 04:35:56 10° 244° (WSW) 2,105 10.0 -13.9°
Maximum altitude 04:40:49 73° 329° (NNW) 705 7.5 -14.5°
Drops below altitude 10° 04:45:38 10° 55° (NE) 2,074 9.7 -15.1°
Sets 04:47:58 0° 57° (ENE) 2,967 10.5 -15.3°
